| time (UTC) | temp F | wind direction | speed MPH | gust MPH | rain 1hr in | rain 24hr in | rain mn in | humidity % | barometer mb |
| 20260903192520 | 97 | 0.0 | 0.0 | 0.00 | 0.00 | 0.00 | 49 | 1016.6 | |
| 20260903191520 | 97 | 0.0 | 0.0 | 0.00 | 0.00 | 0.00 | 51 | 1016.6 | |
| 20260903190519 | 97 | 0.0 | 0.0 | 0.00 | 0.00 | 0.00 | 51 | 1016.7 | |
| 20260903185519 | 96 | 0.0 | 0.0 | 0.00 | 0.00 | 0.00 | 52 | 1016.7 | |
| 20260903184519 | 95 | 0.0 | 0.0 | 0.00 | 0.00 | 0.00 | 53 | 1016.8 | |
| 20260903183519 | 96 | 0.0 | 0.0 | 0.00 | 0.00 | 0.00 | 52 | 1016.8 | |
| 20260903182520 | 97 | 0.0 | 0.0 | 0.00 | 0.00 | 0.00 | 50 | 1016.9 | |
| 20260903181519 | 96 | 0.0 | 0.0 | 0.00 | 0.00 | 0.00 | 52 | 1017.1 | |
| 20260903180520 | 96 | 0.0 | 0.0 | 0.00 | 0.00 | 0.00 | 53 | 1017.2 | |
| 20260903175520 | 96 | 0.0 | 0.0 | 0.00 | 0.00 | 0.00 | 51 | 1017.3 | |
| 20260903174520 | 97 | 0.0 | 0.0 | 0.00 | 0.00 | 0.00 | 50 | 1017.4 | |
| 20260903173520 | 97 | 0.0 | 0.0 | 0.00 | 0.00 | 0.00 | 56 | 1017.5 | |
| 20260903172520 | 96 | 0.0 | 0.0 | 0.00 | 0.00 | 0.00 | 55 | 1017.5 | |
| 20260903171519 | 95 | 0.0 | 0.0 | 0.00 | 0.00 | 0.00 | 57 | 1017.5 | |
| 20260903170519 | 96 | 0.0 | 0.0 | 0.00 | 0.00 | 0.00 | 54 | 1017.7 | |
| 20260903165559 | 95 | 0.0 | 0.0 | 0.00 | 0.00 | 0.00 | 51 | 1017.7 | |
| 20260903164519 | 95 | 0.0 | 0.0 | 0.00 | 0.00 | 0.00 | 57 | 1017.9 | |
| 20260903163600 | 94 | 0.0 | 0.0 | 0.00 | 0.00 | 0.00 | 58 | 1018.0 | |
| 20260903162519 | 94 | 0.0 | 0.0 | 0.00 | 0.00 | 0.00 | 56 | 1018.1 | |
| 20260903161519 | 94 | 0.0 | 0.0 | 0.00 | 0.00 | 0.00 | 55 | 1018.2 | |
| 20260903160519 | 93 | 0.0 | 0.0 | 0.00 | 0.00 | 0.00 | 59 | 1018.1 | |
| 20260903155520 | 92 | 0.0 | 0.0 | 0.00 | 0.00 | 0.00 | 57 | 1018.1 | |
| 20260903154520 | 93 | 0.0 | 0.0 | 0.00 | 0.00 | 0.00 | 58 | 1018.2 | |
| 20260903153519 | 92 | 0.0 | 0.0 | 0.00 | 0.00 | 0.00 | 61 | 1018.2 | |
| 20260903152520 | 91 | 0.0 | 0.0 | 0.00 | 0.00 | 0.00 | 62 | 1018.2 | |
| 20260903151600 | 91 | 0.0 | 0.0 | 0.00 | 0.00 | 0.00 | 62 | 1018.0 | |
| 20260903150519 | 90 | 0.0 | 0.0 | 0.00 | 0.00 | 0.00 | 66 | 1018.1 | |
| 20260903145519 | 89 | 0.0 | 0.0 | 0.00 | 0.00 | 0.00 | 69 | 1018.2 | |
| 20260903144520 | 87 | 0.0 | 0.0 | 0.00 | 0.00 | 0.00 | 73 | 1018.1 | |
| 20260903143522 | 86 | 0.0 | 0.0 | 0.00 | 0.00 | 0.00 | 76 | 1018.1 | |
| 20260903142519 | 84 | 0.0 | 0.0 | 0.00 | 0.00 | 0.00 | 80 | 1018.1 | |
| 20260903141520 | 83 | 0.0 | 0.0 | 0.00 | 0.00 | 0.00 | 83 | 1018.1 | |
| 20260903140519 | 81 | 0.0 | 0.0 | 0.00 | 0.00 | 0.00 | 87 | 1018.2 | |
| 20260903135520 | 79 | 0.0 | 0.0 | 0.00 | 0.00 | 0.00 | 92 | 1018.1 | |
| 20260903134520 | 78 | 0.0 | 0.0 | 0.00 | 0.00 | 0.00 | 97 | 1018.2 | |
| 20260903133519 | 77 | 0.0 | 0.0 | 0.00 | 0.00 | 0.00 | 99 | 1018.2 | |
| 20260903132519 | 76 | 0.0 | 0.0 | 0.00 | 0.00 | 0.00 | 100 | 1018.3 | |
| 20260903131520 | 75 | 0.0 | 0.0 | 0.00 | 0.00 | 0.00 | 100 | 1018.3 | |
| 20260903130519 | 74 | 0.0 | 0.0 | 0.00 | 0.00 | 0.00 | 100 | 1018.4 | |
| 20260903125520 | 74 | 0.0 | 0.0 | 0.00 | 0.00 | 0.00 | 100 | 1018.5 | |
| 20260903122520 | 72 | 0.0 | 0.0 | 0.00 | 0.00 | 0.00 | 100 | 1018.4 | |
| 20260903121519 | 71 | 0.0 | 0.0 | 0.00 | 0.00 | 0.00 | 99 | 1018.3 | |
| 20260903120519 | 71 | 0.0 | 0.0 | 0.00 | 0.00 | 0.00 | 99 | 1018.3 | |
| 20260903115520 | 71 | 0.0 | 0.0 | 0.00 | 0.00 | 0.00 | 99 | 1018.3 | |
| 20260903114519 | 70 | 0.0 | 0.0 | 0.00 | 0.00 | 0.00 | 99 | 1018.3 | |
| 20260903113640 | 70 | 0.0 | 0.0 | 0.00 | 0.00 | 0.00 | 99 | 1018.3 | |
| 20260903112520 | 70 | 0.0 | 0.0 | 0.00 | 0.00 | 0.00 | 99 | 1018.2 | |
| 20260903111521 | 70 | 0.0 | 0.0 | 0.00 | 0.00 | 0.00 | 99 | 1018.2 | |
| 20260903110520 | 70 | 0.0 | 0.0 | 0.00 | 0.00 | 0.00 | 99 | 1018.1 | |
| 20260903105520 | 70 | 0.0 | 0.0 | 0.00 | 0.00 | 0.00 | 99 | 1018.0 | |
| 20260903104559 | 71 | 0.0 | 0.0 | 0.00 | 0.00 | 0.00 | 99 | 1018.0 | |
| 20260903103520 | 71 | 0.0 | 0.0 | 0.00 | 0.00 | 0.00 | 99 | 1018.0 | |
| 20260903102520 | 71 | 0.0 | 0.0 | 0.00 | 0.00 | 0.00 | 99 | 1017.9 | |
| 20260903101520 | 71 | 0.0 | 0.0 | 0.00 | 0.00 | 0.00 | 99 | 1018.1 | |
| 20260903100600 | 71 | 0.0 | 0.0 | 0.00 | 0.00 | 0.00 | 99 | 1018.1 | |
| 20260903094520 | 71 | 0.0 | 0.0 | 0.00 | 0.00 | 0.00 | 99 | 1018.0 | |
| 20260903093520 | 71 | 0.0 | 0.0 | 0.00 | 0.00 | 0.00 | 99 | 1018.1 | |
| 20260903092520 | 71 | 0.0 | 0.0 | 0.00 | 0.00 | 0.00 | 99 | 1018.1 | |
| 20260903091520 | 71 | 0.0 | 0.0 | 0.00 | 0.00 | 0.00 | 99 | 1018.0 | |
| 20260903090559 | 71 | 0.0 | 0.0 | 0.00 | 0.00 | 0.00 | 99 | 1017.9 | |
| 20260903085520 | 71 | 0.0 | 0.0 | 0.00 | 0.00 | 0.00 | 99 | 1017.8 | |
| 20260903084520 | 71 | 0.0 | 0.0 | 0.00 | 0.00 | 0.00 | 99 | 1017.7 | |
| 20260903083520 | 71 | 0.0 | 0.0 | 0.00 | 0.00 | 0.00 | 99 | 1017.7 | |
| 20260903082559 | 71 | 0.0 | 0.0 | 0.00 | 0.00 | 0.00 | 99 | 1017.6 | |
| 20260903081520 | 72 | 0.0 | 0.0 | 0.00 | 0.00 | 0.00 | 99 | 1017.5 | |
| 20260903080520 | 72 | 0.0 | 0.0 | 0.00 | 0.00 | 0.00 | 98 | 1017.6 | |
| 20260903075519 | 72 | 0.0 | 0.0 | 0.00 | 0.00 | 0.00 | 98 | 1017.6 | |
| 20260903074600 | 72 | 0.0 | 0.0 | 0.00 | 0.00 | 0.00 | 98 | 1017.5 | |
| 20260903073519 | 72 | 0.0 | 0.0 | 0.00 | 0.00 | 0.00 | 98 | 1017.5 | |
| 20260903072520 | 72 | 0.0 | 0.0 | 0.00 | 0.00 | 0.00 | 98 | 1017.5 | |
| 20260903071520 | 72 | 0.0 | 0.0 | 0.00 | 0.00 | 0.00 | 98 | 1017.3 | |
| 20260903070520 | 72 | 0.0 | 0.0 | 0.00 | 0.00 | 0.00 | 98 | 1017.3 | |
| 20260903065520 | 72 | 0.0 | 0.0 | 0.00 | 0.00 | 0.00 | 98 | 1017.3 | |
| 20260903064520 | 72 | 0.0 | 0.0 | 0.00 | 0.00 | 0.00 | 98 | 1017.3 | |
| 20260903063520 | 72 | 0.0 | 0.0 | 0.00 | 0.00 | 0.00 | 98 | 1017.3 | |
| 20260903062520 | 72 | 0.0 | 0.0 | 0.00 | 0.00 | 0.00 | 98 | 1017.4 | |
| 20260903061600 | 73 | 0.0 | 0.0 | 0.00 | 0.00 | 0.00 | 98 | 1017.5 | |
| 20260903060520 | 73 | 0.0 | 0.0 | 0.00 | 0.00 | 0.00 | 98 | 1017.4 | |
| 20260903055520 | 73 | 0.0 | 0.0 | 0.00 | 0.00 | 0.00 | 98 | 1017.5 | |
| 20260903054519 | 73 | 0.0 | 0.0 | 0.00 | 0.00 | 0.00 | 98 | 1017.5 | |
| 20260903053520 | 73 | 0.0 | 0.0 | 0.00 | 0.00 | 0.00 | 98 | 1017.5 | |
| 20260903052520 | 73 | 0.0 | 0.0 | 0.00 | 0.00 | 0.00 | 98 | 1017.5 | |
| 20260903051520 | 73 | 0.0 | 0.0 | 0.00 | 0.00 | 0.00 | 97 | 1017.5 | |
| 20260903050520 | 73 | 0.0 | 0.0 | 0.00 | 0.00 | 0.00 | 97 | 1017.3 | |
| 20260903045520 | 74 | 0.0 | 0.0 | 0.00 | 0.00 | 0.00 | 97 | 1017.3 | |
| 20260903044600 | 74 | 0.0 | 0.0 | 0.00 | 0.00 | 0.00 | 97 | 1017.4 | |
| 20260903043519 | 74 | 0.0 | 0.0 | 0.00 | 0.00 | 0.00 | 97 | 1017.4 | |
| 20260903042600 | 74 | 0.0 | 0.0 | 0.00 | 0.00 | 0.00 | 97 | 1017.3 | |
| 20260903041520 | 74 | 0.0 | 0.0 | 0.00 | 0.00 | 0.00 | 97 | 1017.3 | |
| 20260903040520 | 74 | 0.0 | 0.0 | 0.00 | 0.00 | 0.00 | 97 | 1017.3 | |
| 20260903035559 | 74 | 0.0 | 0.0 | 0.00 | 0.00 | 0.00 | 97 | 1017.3 | |
| 20260903034520 | 75 | 0.0 | 0.0 | 0.00 | 0.00 | 0.00 | 96 | 1017.3 | |
| 20260903033519 | 75 | 0.0 | 0.0 | 0.00 | 0.00 | 0.00 | 96 | 1017.3 | |
| 20260903032520 | 75 | 0.0 | 0.0 | 0.00 | 0.00 | 0.00 | 96 | 1017.2 | |
| 20260903031519 | 75 | 0.0 | 0.0 | 0.00 | 0.00 | 0.00 | 96 | 1017.2 | |
| 20260903030600 | 75 | 0.0 | 0.0 | 0.00 | 0.00 | 0.00 | 96 | 1017.2 | |
| 20260903025520 | 76 | 0.0 | 0.0 | 0.00 | 0.00 | 0.00 | 96 | 1017.2 | |
| 20260903024519 | 76 | 0.0 | 0.0 | 0.00 | 0.00 | 0.00 | 95 | 1017.2 | |
| 20260903023520 | 76 | 0.0 | 0.0 | 0.00 | 0.00 | 0.00 | 95 | 1017.1 | |
| 20260903022520 | 76 | 0.0 | 0.0 | 0.00 | 0.00 | 0.00 | 95 | 1017.1 | |
| 20260903021520 | 76 | 0.0 | 0.0 | 0.00 | 0.00 | 0.00 | 94 | 1017.1 | |
| 20260903020520 | 77 | 0.0 | 0.0 | 0.00 | 0.00 | 0.00 | 94 | 1017.1 | |
| 20260903015519 | 77 | 0.0 | 0.0 | 0.00 | 0.00 | 0.00 | 94 | 1017.0 | |
| 20260903014520 | 77 | 0.0 | 0.0 | 0.00 | 0.00 | 0.00 | 93 | 1017.0 | |
| 20260903013520 | 78 | 0.0 | 0.0 | 0.00 | 0.00 | 0.00 | 93 | 1016.9 | |
| 20260903012520 | 78 | 0.0 | 0.0 | 0.00 | 0.00 | 0.00 | 92 | 1016.8 | |
| 20260903011520 | 79 | 0.0 | 0.0 | 0.00 | 0.00 | 0.00 | 92 | 1016.8 | |
| 20260903010520 | 79 | 0.0 | 0.0 | 0.00 | 0.00 | 0.00 | 91 | 1016.7 | |
| 20260903005520 | 80 | 0.0 | 0.0 | 0.00 | 0.00 | 0.00 | 91 | 1016.6 | |
| 20260903004520 | 80 | 0.0 | 0.0 | 0.00 | 0.00 | 0.00 | 89 | 1016.6 | |
| 20260903003520 | 81 | 0.0 | 0.0 | 0.00 | 0.00 | 0.00 | 89 | 1016.6 | |
| 20260903002520 | 81 | 0.0 | 0.0 | 0.00 | 0.00 | 0.00 | 88 | 1016.6 | |
| 20260903001520 | 82 | 0.0 | 0.0 | 0.00 | 0.00 | 0.00 | 87 | 1016.6 | |
| 20260903000520 | 83 | 0.0 | 0.0 | 0.00 | 0.00 | 0.00 | 86 | 1016.5 | |
| 20260902235519 | 84 | 0.0 | 0.0 | 0.00 | 0.00 | 0.00 | 84 | 1016.5 | |
| 20260902234520 | 85 | 0.0 | 0.0 | 0.00 | 0.00 | 0.00 | 83 | 1016.5 | |
| 20260902233520 | 86 | 0.0 | 0.0 | 0.00 | 0.00 | 0.00 | 82 | 1016.6 | |
| 20260902232520 | 87 | 0.0 | 0.0 | 0.00 | 0.00 | 0.00 | 80 | 1016.7 | |
| 20260902231537 | 88 | 0.0 | 0.0 | 0.00 | 0.00 | 0.00 | 80 | 1016.7 | |
| 20260902230520 | 89 | 0.0 | 0.0 | 0.00 | 0.00 | 0.00 | 77 | 1016.8 | |
| 20260902225520 | 90 | 0.0 | 0.0 | 0.00 | 0.00 | 0.00 | 75 | 1016.7 | |
| 20260902224520 | 92 | 0.0 | 0.0 | 0.00 | 0.00 | 0.00 | 71 | 1016.8 | |
| 20260902223520 | 93 | 0.0 | 0.0 | 0.00 | 0.00 | 0.00 | 66 | 1016.8 | |
| 20260902222520 | 95 | 0.0 | 0.0 | 0.00 | 0.00 | 0.00 | 59 | 1016.9 | |
| 20260902221600 | 98 | 0.0 | 0.0 | 0.00 | 0.00 | 0.00 | 54 | 1017.0 | |
| 20260902220519 | 97 | 0.0 | 0.0 | 0.00 | 0.00 | 0.00 | 55 | 1017.1 | |
| 20260902215520 | 97 | 0.0 | 1.0 | 0.00 | 0.00 | 0.00 | 52 | 1017.1 | |
| 20260902214520 | 97 | 0.0 | 1.0 | 0.00 | 0.00 | 0.00 | 52 | 1017.1 | |
| 20260902213520 | 97 | 0.0 | 3.0 | 0.00 | 0.00 | 0.00 | 51 | 1017.1 | |
| 20260902212519 | 97 | 0.0 | 1.0 | 0.00 | 0.00 | 0.00 | 52 | 1017.2 | |
| 20260902211520 | 96 | 0.0 | 1.0 | 0.00 | 0.00 | 0.00 | 55 | 1017.4 | |
| 20260902210559 | 96 | 0.0 | 1.0 | 0.00 | 0.00 | 0.00 | 55 | 1017.3 | |
| 20260902205520 | 95 | 0.0 | 1.0 | 0.00 | 0.00 | 0.00 | 55 | 1017.4 | |
| 20260902204520 | 95 | 0.0 | 0.0 | 0.00 | 0.00 | 0.00 | 56 | 1017.4 | |
| 20260902203520 | 96 | 0.0 | 1.0 | 0.00 | 0.00 | 0.00 | 52 | 1017.5 | |
| 20260902202520 | 97 | 0.0 | 3.0 | 0.00 | 0.00 | 0.00 | 53 | 1017.6 | |
| 20260902201520 | 97 | 0.0 | 0.0 | 0.00 | 0.00 | 0.00 | 53 | 1017.7 | |
| 20260902200520 | 96 | 0.0 | 1.0 | 0.00 | 0.00 | 0.00 | 51 | 1017.7 | |
| 20260902195520 | 97 | 0.0 | 0.0 | 0.00 | 0.00 | 0.00 | 52 | 1017.8 | |
| 20260902194520 | 98 | 0.0 | 1.0 | 0.00 | 0.00 | 0.00 | 54 | 1018.0 | |
| 20260902193519 | 97 | 0.0 | 2.0 | 0.00 | 0.00 | 0.00 | 50 | 1018.0 |